Tracking 18630 objects as of 27-May-2017
HD Live streaming from Space Station
objects crossing your sky now

NSS 10 (AMC-12)

Track NSS 10 (AMC-12) now!
NSS 10 (AMC-12) is classified as:


NORAD ID: 28526
Int'l Code: 2005-003A
Perigee: 35,783.3 km
Apogee: 35,804.9 km
Inclination: 0.0 °
Period: 1,436.1 minutes
Semi major axis: 42165 km
RCS: 8.2875 m2 (large)
Launch date: February 3, 2005
Source: SOCIETE EUROPEENNE DES SATELLITES (SES)
Launch site: TYURATAM MISSILE AND SPACE COMPLEX (TTMTR)

72 C-band transponders.
Your satellite tracking list
Your tracking list is empty





NASA's NSSDC Master Catalog

Two Line Element Set (TLE):
1 28526U 05003A   17146.42688017 -.00000260 +00000-0 +00000-0 0  9995
2 28526 000.0155 343.3869 0002570 088.2038 288.8158 01.00270512045147
Source of the keplerian elements: AFSPC